STARLINK-2622 (48360 NORAD) Tracking and Keplerian Element Data

This shows tracking and keplerian element data for the satellite.

Feedback or suggestion? Click here.




ElementValue
Catalog48360
NameSTARLINK-2622
Epoch Orbit1381
Epoch Day214.73905344
Epoch Year2021
RAAN343.1982
Inclination53.0538
Eccentricity0.0001479
Argument of Perigee148.9783
Mean Anonmoly211.1293
Mean Motion15.06399223
Decay Rate5.74E-06
L11 48360U 21038H 21214.73905344 .00000574 00000-0 57407-4 0 9993
L22 48360 53.0538 343.1982 0001479 148.9783 211.1293 15.06399223 13810

Live tracking and technical data element details for STARLINK-2622 (NORAD 48360). STARLINK-2622 can be tracked NOW for your location showing map with azimuth and elevation plus other details from your city location.

Track the satellite on the map from your city or location and see movement details for azimuth, elevation, latitude, longitude, range, height, and movement on the map or in text.







IsCatalogInMostPopularTable: catalog: 48360, numindb: 29
Update: records affected: 1



GetName: 48360 STARLINK-2622

Hit Count: updated at: Tue, 03 Aug 2021 20:15:11 GMT